owner,sensor,date,latitude,longitude,vertical_datum,direction_of_sea_water_velocity,sea_water_speed,upward_sea_water_velocity,qcFlag 
TABS,ioos:station:wmo:42051:1,2001-05-01T00:00:00Z,29.6350,-93.6417,2.0,254.4613604,49.8727591,-99999.0,'11111222,11111222,99999999' 
TABS,ioos:station:wmo:42051:1,2001-05-01T00:30:00Z,29.6350,-93.6417,2.0,261.9829115,39.29400081,-99999.0,'11111222,11111222,99999999' 
TABS,ioos:station:wmo:42051:1,2001-05-01T01:00:00Z,29.6350,-93.6417,2.0,260.1692133,45.04131992,-99999.0,'11111222,11111222,99999999' 
TABS,ioos:station:wmo:42051:1,2001-05-01T01:30:00Z,29.6350,-93.6417,2.0,263.3383953,40.60410078,-99999.0,'11111222,11111222,99999999' 
TABS,ioos:station:wmo:42051:1,2001-05-01T02:00:00Z,29.6350,-93.6417,2.0,259.5135728,42.1438311,-99999.0,'11111222,11111222,99999999' 
TABS,ioos:station:wmo:42051:1,2001-05-01T02:30:00Z,29.6350,-93.6417,2.0,255.3929621,38.97983196,-99999.0,'11111222,11111222,99999999' 
TABS,ioos:station:wmo:42051:1,2001-05-01T03:00:00Z,29.6350,-93.6417,2.0,256.3553101,39.00064102,-99999.0,'11111222,11111222,99999999' 
TABS,ioos:station:wmo:42051:1,2001-05-01T03:30:00Z,29.6350,-93.6417,2.0,258.6626255,37.38954533,-99999.0,'11111222,11111222,99999999' 
TABS,ioos:station:wmo:42051:1,2001-05-01T04:00:00Z,29.6350,-93.6417,2.0,254.0374428,46.9086346,-99999.0,'11111222,11111222,99999999' 
TABS,ioos:station:wmo:42051:1,2001-05-01T04:30:00Z,29.6350,-93.6417,2.0,258.669137,32.82984313,-99999.0,'11111222,11111222,99999999' 
TABS,ioos:station:wmo:42051:1,2001-05-01T05:00:00Z,29.6350,-93.6417,2.0,259.4832121,29.3123677,-99999.0,'11111222,11111222,99999999' 
TABS,ioos:station:wmo:42051:1,2001-05-01T05:30:00Z,29.6350,-93.6417,2.0,254.5464248,38.05577486,-99999.0,'11111222,11111222,99999999' 
TABS,ioos:station:wmo:42051:1,2001-05-01T06:00:00Z,29.6350,-93.6417,2.0,252.5396761,41.62792572,-99999.0,'11111222,11111222,99999999' 
TABS,ioos:station:wmo:42051:1,2001-05-01T06:30:00Z,29.6350,-93.6417,2.0,252.7809587,44.69305315,-99999.0,'11111222,11111222,99999999' 
TABS,ioos:station:wmo:42051:1,2001-05-01T07:00:00Z,29.6350,-93.6417,2.0,250.2166908,43.28458617,-99999.0,'11111222,11111222,99999999' 
TABS,ioos:station:wmo:42051:1,2001-05-01T07:30:00Z,29.6350,-93.6417,2.0,249.0710401,38.52139665,-99999.0,'11111222,11111222,99999999' 
TABS,ioos:station:wmo:42051:1,2001-05-01T08:00:00Z,29.6350,-93.6417,2.0,249.9765568,41.64738287,-99999.0,'11111222,11111222,99999999' 
TABS,ioos:station:wmo:42051:1,2001-05-01T08:30:00Z,29.6350,-93.6417,2.0,246.3295112,34.62273964,-99999.0,'11111222,11111222,99999999' 
TABS,ioos:station:wmo:42051:1,2001-05-01T09:00:00Z,29.6350,-93.6417,2.0,251.3983879,44.67368465,-99999.0,'11111222,11111222,99999999' 
TABS,ioos:station:wmo:42051:1,2001-05-01T09:30:00Z,29.6350,-93.6417,2.0,249.4164637,39.56576424,-99999.0,'11111222,11111222,99999999' 
TABS,ioos:station:wmo:42051:1,2001-05-01T10:00:00Z,29.6350,-93.6417,2.0,246.1108105,41.85564956,-99999.0,'11111222,11111222,99999999' 
TABS,ioos:station:wmo:42051:1,2001-05-01T10:30:00Z,29.6350,-93.6417,2.0,243.7406662,43.53239254,-99999.0,'11111222,11111222,99999999' 
TABS,ioos:station:wmo:42051:1,2001-05-01T11:00:00Z,29.6350,-93.6417,2.0,242.8669374,39.27175321,-99999.0,'11111222,11111222,99999999' 
TABS,ioos:station:wmo:42051:1,2001-05-01T11:30:00Z,29.6350,-93.6417,2.0,249.182717,35.98935537,-99999.0,'11111222,11111222,99999999' 
TABS,ioos:station:wmo:42051:1,2001-05-01T12:00:00Z,29.6350,-93.6417,2.0,254.9451881,34.80450689,-99999.0,'11111222,11111222,99999999' 
TABS,ioos:station:wmo:42051:1,2001-05-01T12:30:00Z,29.6350,-93.6417,2.0,246.2283657,34.68238746,-99999.0,'11111222,11111222,99999999' 
TABS,ioos:station:wmo:42051:1,2001-05-01T13:00:00Z,29.6350,-93.6417,2.0,257.9410855,30.9223091,-99999.0,'11111222,11111222,99999999' 
TABS,ioos:station:wmo:42051:1,2001-05-01T13:30:00Z,29.6350,-93.6417,2.0,263.9707632,27.23060778,-99999.0,'11111222,11111222,99999999' 
TABS,ioos:station:wmo:42051:1,2001-05-01T14:00:00Z,29.6350,-93.6417,2.0,261.5323139,28.11646671,-99999.0,'11111222,11111222,99999999' 
TABS,ioos:station:wmo:42051:1,2001-05-01T14:30:00Z,29.6350,-93.6417,2.0,254.2393238,26.3610034,-99999.0,'11111222,11111222,99999999' 
TABS,ioos:station:wmo:42051:1,2001-05-01T15:00:00Z,29.6350,-93.6417,2.0,261.8883705,30.05062562,-99999.0,'11111222,11111222,99999999' 
TABS,ioos:station:wmo:42051:1,2001-05-01T15:30:00Z,29.6350,-93.6417,2.0,264.5286749,26.64135882,-99999.0,'11111222,11111222,99999999' 
TABS,ioos:station:wmo:42051:1,2001-05-01T16:00:00Z,29.6350,-93.6417,2.0,265.4316478,26.74495279,-99999.0,'11111222,11111222,99999999' 
TABS,ioos:station:wmo:42051:1,2001-05-01T16:30:00Z,29.6350,-93.6417,2.0,267.8088235,33.48447401,-99999.0,'11111222,11111222,99999999' 
TABS,ioos:station:wmo:42051:1,2001-05-01T17:00:00Z,29.6350,-93.6417,2.0,266.0437605,33.33943011,-99999.0,'11111222,11111222,99999999' 
TABS,ioos:station:wmo:42051:1,2001-05-01T17:30:00Z,29.6350,-93.6417,2.0,266.9812993,32.85557791,-99999.0,'11111222,11111222,99999999' 
TABS,ioos:station:wmo:42051:1,2001-05-01T18:00:00Z,29.6350,-93.6417,2.0,278.3110843,31.40983922,-99999.0,'11111222,11111222,99999999' 
TABS,ioos:station:wmo:42051:1,2001-05-01T18:30:00Z,29.6350,-93.6417,2.0,276.6892807,31.93738875,-99999.0,'11111222,11111222,99999999' 
TABS,ioos:station:wmo:42051:1,2001-05-01T19:00:00Z,29.6350,-93.6417,2.0,271.6936643,31.47374302,-99999.0,'11111222,11111222,99999999' 
TABS,ioos:station:wmo:42051:1,2001-05-01T19:30:00Z,29.6350,-93.6417,2.0,272.1427348,33.97374575,-99999.0,'11111222,11111222,99999999' 
TABS,ioos:station:wmo:42051:1,2001-05-01T20:00:00Z,29.6350,-93.6417,2.0,285.0241676,32.36633591,-99999.0,'11111222,11111222,99999999' 
TABS,ioos:station:wmo:42051:1,2001-05-01T20:30:00Z,29.6350,-93.6417,2.0,285.3190033,34.02899499,-99999.0,'11111222,11111222,99999999' 
TABS,ioos:station:wmo:42051:1,2001-05-01T21:00:00Z,29.6350,-93.6417,2.0,286.2084103,32.0644133,-99999.0,'11111222,11111222,99999999' 
TABS,ioos:station:wmo:42051:1,2001-05-01T21:30:00Z,29.6350,-93.6417,2.0,290.0936617,33.76513142,-99999.0,'11111222,11111222,99999999' 
TABS,ioos:station:wmo:42051:1,2001-05-01T22:00:00Z,29.6350,-93.6417,2.0,291.2823274,35.84438729,-99999.0,'11111222,11111222,99999999' 
TABS,ioos:station:wmo:42051:1,2001-05-01T22:30:00Z,29.6350,-93.6417,2.0,289.3145032,32.56264424,-99999.0,'11111222,11111222,99999999' 
TABS,ioos:station:wmo:42051:1,2001-05-01T23:00:00Z,29.6350,-93.6417,2.0,290.2079898,31.17916772,-99999.0,'11111222,11111222,99999999' 
TABS,ioos:station:wmo:42051:1,2001-05-01T23:30:00Z,29.6350,-93.6417,2.0,293.3581501,26.93761868,-99999.0,'11111222,11111222,99999999' 
TABS,ioos:station:wmo:42051:1,2001-05-02T00:00:00Z,29.6350,-93.6417,2.0,284.8571723,24.72661724,-99999.0,'11111222,11111222,99999999' 
TABS,ioos:station:wmo:42051:1,2001-05-02T00:30:00Z,29.6350,-93.6417,2.0,280.8314231,25.80978497,-99999.0,'11111222,11111222,99999999' 
TABS,ioos:station:wmo:42051:1,2001-05-02T01:00:00Z,29.6350,-93.6417,2.0,281.2621861,28.00931631,-99999.0,'11111222,11111222,99999999' 
TABS,ioos:station:wmo:42051:1,2001-05-02T01:30:00Z,29.6350,-93.6417,2.0,274.7139651,29.44959932,-99999.0,'11111222,11111222,99999999' 
TABS,ioos:station:wmo:42051:1,2001-05-02T02:00:00Z,29.6350,-93.6417,2.0,272.9299776,26.41452063,-99999.0,'11111222,11111222,99999999' 
TABS,ioos:station:wmo:42051:1,2001-05-02T02:30:00Z,29.6350,-93.6417,2.0,269.3302679,29.96204432,-99999.0,'11111222,11111222,99999999' 
TABS,ioos:station:wmo:42051:1,2001-05-02T03:00:00Z,29.6350,-93.6417,2.0,268.6818286,31.30828005,-99999.0,'11111222,11111222,99999999' 
TABS,ioos:station:wmo:42051:1,2001-05-02T03:30:00Z,29.6350,-93.6417,2.0,265.9492028,44.02997275,-99999.0,'11111222,11111222,99999999' 
TABS,ioos:station:wmo:42051:1,2001-05-02T04:00:00Z,29.6350,-93.6417,2.0,261.7157661,53.23543275,-99999.0,'11111222,11111222,99999999' 
TABS,ioos:station:wmo:42051:1,2001-05-02T04:30:00Z,29.6350,-93.6417,2.0,262.6704642,53.61807531,-99999.0,'11111222,11111222,99999999' 
TABS,ioos:station:wmo:42051:1,2001-05-02T05:00:00Z,29.6350,-93.6417,2.0,257.6069507,44.73227135,-99999.0,'11111222,11111222,99999999' 
TABS,ioos:station:wmo:42051:1,2001-05-02T05:30:00Z,29.6350,-93.6417,2.0,262.3966506,41.04080043,-99999.0,'11111222,11111222,99999999' 
TABS,ioos:station:wmo:42051:1,2001-05-02T06:00:00Z,29.6350,-93.6417,2.0,258.4074308,43.79326432,-99999.0,'11111222,11111222,99999999' 
TABS,ioos:station:wmo:42051:1,2001-05-02T06:30:00Z,29.6350,-93.6417,2.0,261.0446431,42.14368873,-99999.0,'11111222,11111222,99999999' 
TABS,ioos:station:wmo:42051:1,2001-05-02T07:00:00Z,29.6350,-93.6417,2.0,261.2868951,46.87087475,-99999.0,'11111222,11111222,99999999' 
TABS,ioos:station:wmo:42051:1,2001-05-02T07:30:00Z,29.6350,-93.6417,2.0,259.7779904,49.87152394,-99999.0,'11111222,11111222,99999999' 
TABS,ioos:station:wmo:42051:1,2001-05-02T08:00:00Z,29.6350,-93.6417,2.0,259.0127378,45.91151707,-99999.0,'11111222,11111222,99999999' 
TABS,ioos:station:wmo:42051:1,2001-05-02T08:30:00Z,29.6350,-93.6417,2.0,255.9958702,55.58189813,-99999.0,'11111222,11111222,99999999' 
TABS,ioos:station:wmo:42051:1,2001-05-02T09:00:00Z,29.6350,-93.6417,2.0,255.4310762,48.81967739,-99999.0,'11111222,11111222,99999999' 
TABS,ioos:station:wmo:42051:1,2001-05-02T09:30:00Z,29.6350,-93.6417,2.0,254.4471486,43.26410059,-99999.0,'11111222,11111222,99999999' 
TABS,ioos:station:wmo:42051:1,2001-05-02T10:00:00Z,29.6350,-93.6417,2.0,256.1220817,41.15117738,-99999.0,'11111222,11111222,99999999' 
TABS,ioos:station:wmo:42051:1,2001-05-02T10:30:00Z,29.6350,-93.6417,2.0,259.8709571,35.48298888,-99999.0,'11111222,11111222,99999999' 
TABS,ioos:station:wmo:42051:1,2001-05-02T11:00:00Z,29.6350,-93.6417,2.0,256.0377257,41.11467378,-99999.0,'11111222,11111222,99999999' 
TABS,ioos:station:wmo:42051:1,2001-05-02T11:30:00Z,29.6350,-93.6417,2.0,248.0851351,32.92941846,-99999.0,'11111222,11111222,99999999' 
TABS,ioos:station:wmo:42051:1,2001-05-02T12:00:00Z,29.6350,-93.6417,2.0,253.2799361,32.22223611,-99999.0,'11111222,11111222,99999999' 
TABS,ioos:station:wmo:42051:1,2001-05-02T12:30:00Z,29.6350,-93.6417,2.0,243.7162377,25.47359417,-99999.0,'11111222,11111222,99999999' 
TABS,ioos:station:wmo:42051:1,2001-05-02T13:00:00Z,29.6350,-93.6417,2.0,251.6433761,23.02140308,-99999.0,'11111222,11111222,99999999' 
TABS,ioos:station:wmo:42051:1,2001-05-02T13:30:00Z,29.6350,-93.6417,2.0,248.6755686,25.40957497,-99999.0,'11111222,11111222,99999999' 
TABS,ioos:station:wmo:42051:1,2001-05-02T14:00:00Z,29.6350,-93.6417,2.0,244.997134,28.86495453,-99999.0,'11111222,11111222,99999999' 
TABS,ioos:station:wmo:42051:1,2001-05-02T14:30:00Z,29.6350,-93.6417,2.0,253.6872193,27.66361148,-99999.0,'11111222,11111222,99999999' 
TABS,ioos:station:wmo:42051:1,2001-05-02T15:00:00Z,29.6350,-93.6417,2.0,260.8246361,24.58453376,-99999.0,'11111222,11111222,99999999' 
TABS,ioos:station:wmo:42051:1,2001-05-02T15:30:00Z,29.6350,-93.6417,2.0,251.8850829,31.1014871,-99999.0,'11111222,11111222,99999999' 
TABS,ioos:station:wmo:42051:1,2001-05-02T16:00:00Z,29.6350,-93.6417,2.0,257.7314085,35.53140723,-99999.0,'11111222,11111222,99999999' 
TABS,ioos:station:wmo:42051:1,2001-05-02T16:30:00Z,29.6350,-93.6417,2.0,262.7424364,33.88141821,-99999.0,'11111222,11111222,99999999' 
TABS,ioos:station:wmo:42051:1,2001-05-02T17:00:00Z,29.6350,-93.6417,2.0,263.6081419,33.32714359,-99999.0,'11111222,11111222,99999999' 
TABS,ioos:station:wmo:42051:1,2001-05-02T17:30:00Z,29.6350,-93.6417,2.0,260.4216349,30.95146039,-99999.0,'11111222,11111222,99999999' 
TABS,ioos:station:wmo:42051:1,2001-05-02T18:00:00Z,29.6350,-93.6417,2.0,265.5282134,29.63018225,-99999.0,'11111222,11111222,99999999' 
TABS,ioos:station:wmo:42051:1,2001-05-02T18:30:00Z,29.6350,-93.6417,2.0,260.7812223,27.02908249,-99999.0,'11111222,11111222,99999999' 
TABS,ioos:station:wmo:42051:1,2001-05-02T19:00:00Z,29.6350,-93.6417,2.0,261.0372852,25.99740179,-99999.0,'11111222,11111222,99999999' 
TABS,ioos:station:wmo:42051:1,2001-05-02T19:30:00Z,29.6350,-93.6417,2.0,297.6890653,28.27828142,-99999.0,'11111222,11111222,99999999' 
TABS,ioos:station:wmo:42051:1,2001-05-02T20:00:00Z,29.6350,-93.6417,2.0,305.4268751,25.16998609,-99999.0,'11111222,11111222,99999999' 
TABS,ioos:station:wmo:42051:1,2001-05-02T20:30:00Z,29.6350,-93.6417,2.0,307.7581317,26.58719241,-99999.0,'11111222,11111222,99999999' 
TABS,ioos:station:wmo:42051:1,2001-05-02T21:00:00Z,29.6350,-93.6417,2.0,300.1069428,63.85435381,-99999.0,'11111222,11111222,99999999' 
TABS,ioos:station:wmo:42051:1,2001-05-02T21:30:00Z,29.6350,-93.6417,2.0,301.6955105,73.22042679,-99999.0,'11111222,11111222,99999999' 
TABS,ioos:station:wmo:42051:1,2001-05-02T22:00:00Z,29.6350,-93.6417,2.0,298.2533506,73.93860223,-99999.0,'11111222,11111222,99999999' 
TABS,ioos:station:wmo:42051:1,2001-05-02T22:30:00Z,29.6350,-93.6417,2.0,292.4484119,67.46184181,-99999.0,'11111222,11111222,99999999' 
TABS,ioos:station:wmo:42051:1,2001-05-02T23:00:00Z,29.6350,-93.6417,2.0,291.1791499,64.93592303,-99999.0,'11111222,11111222,99999999' 
TABS,ioos:station:wmo:42051:1,2001-05-02T23:30:00Z,29.6350,-93.6417,2.0,290.3580723,58.15224243,-99999.0,'11111222,11111222,99999999' 
TABS,ioos:station:wmo:42051:1,2001-05-03T00:00:00Z,29.6350,-93.6417,2.0,289.8649195,56.15106856,-99999.0,'11111222,11111222,99999999' 
TABS,ioos:station:wmo:42051:1,2001-05-03T00:30:00Z,29.6350,-93.6417,2.0,283.870324,55.14798274,-99999.0,'11111222,11111222,99999999' 
TABS,ioos:station:wmo:42051:1,2001-05-03T01:00:00Z,29.6350,-93.6417,2.0,283.7452273,54.84043946,-99999.0,'11111222,11111222,99999999' 
TABS,ioos:station:wmo:42051:1,2001-05-03T01:30:00Z,29.6350,-93.6417,2.0,278.8935532,50.97277705,-99999.0,'11111222,11111222,99999999' 
TABS,ioos:station:wmo:42051:1,2001-05-03T02:00:00Z,29.6350,-93.6417,2.0,269.6383082,42.82085123,-99999.0,'11111222,11111222,99999999' 
TABS,ioos:station:wmo:42051:1,2001-05-03T02:30:00Z,29.6350,-93.6417,2.0,266.7746894,43.01812293,-99999.0,'11111222,11111222,99999999' 
TABS,ioos:station:wmo:42051:1,2001-05-03T03:00:00Z,29.6350,-93.6417,2.0,265.3023654,42.98436925,-99999.0,'11111222,11111222,99999999' 
TABS,ioos:station:wmo:42051:1,2001-05-03T03:30:00Z,29.6350,-93.6417,2.0,266.1159123,43.25934003,-99999.0,'11111222,11111222,99999999' 
TABS,ioos:station:wmo:42051:1,2001-05-03T04:00:00Z,29.6350,-93.6417,2.0,269.1612881,45.79490146,-99999.0,'11111222,11111222,99999999' 
TABS,ioos:station:wmo:42051:1,2001-05-03T04:30:00Z,29.6350,-93.6417,2.0,263.0635778,36.84967978,-99999.0,'11111222,11111222,99999999' 
TABS,ioos:station:wmo:42051:1,2001-05-03T05:00:00Z,29.6350,-93.6417,2.0,262.3705251,43.98938054,-99999.0,'11111222,11111222,99999999' 
TABS,ioos:station:wmo:42051:1,2001-05-03T05:30:00Z,29.6350,-93.6417,2.0,254.8993893,50.28630529,-99999.0,'11111222,11111222,99999999' 
TABS,ioos:station:wmo:42051:1,2001-05-03T06:00:00Z,29.6350,-93.6417,2.0,251.6972581,47.82957767,-99999.0,'11111222,11111222,99999999' 
TABS,ioos:station:wmo:42051:1,2001-05-03T06:30:00Z,29.6350,-93.6417,2.0,247.3195624,48.31618052,-99999.0,'11111222,11111222,99999999' 
TABS,ioos:station:wmo:42051:1,2001-05-03T07:00:00Z,29.6350,-93.6417,2.0,238.7264785,44.45994152,-99999.0,'11111222,11111222,99999999' 
TABS,ioos:station:wmo:42051:1,2001-05-03T07:30:00Z,29.6350,-93.6417,2.0,233.3571747,40.81632149,-99999.0,'11111222,11111222,99999999' 
TABS,ioos:station:wmo:42051:1,2001-05-03T08:00:00Z,29.6350,-93.6417,2.0,216.5982934,32.52236461,-99999.0,'11111222,11111222,99999999' 
TABS,ioos:station:wmo:42051:1,2001-05-03T08:30:00Z,29.6350,-93.6417,2.0,230.5225977,22.55534748,-99999.0,'11111222,11111222,99999999' 
TABS,ioos:station:wmo:42051:1,2001-05-03T09:00:00Z,29.6350,-93.6417,2.0,244.6099825,25.07159748,-99999.0,'11111222,11111222,99999999' 
TABS,ioos:station:wmo:42051:1,2001-05-03T09:30:00Z,29.6350,-93.6417,2.0,260.6337304,27.3445223,-99999.0,'11111222,11111222,99999999' 
TABS,ioos:station:wmo:42051:1,2001-05-03T10:00:00Z,29.6350,-93.6417,2.0,270.5057526,32.88127887,-99999.0,'11111222,11111222,99999999' 
TABS,ioos:station:wmo:42051:1,2001-05-03T10:30:00Z,29.6350,-93.6417,2.0,279.9730152,55.3767072,-99999.0,'11111222,11111222,99999999' 
TABS,ioos:station:wmo:42051:1,2001-05-03T11:00:00Z,29.6350,-93.6417,2.0,278.6346539,49.8246726,-99999.0,'11111222,11111222,99999999' 
TABS,ioos:station:wmo:42051:1,2001-05-03T11:30:00Z,29.6350,-93.6417,2.0,282.4830623,47.14442703,-99999.0,'11111222,11111222,99999999' 
TABS,ioos:station:wmo:42051:1,2001-05-03T12:00:00Z,29.6350,-93.6417,2.0,287.6184617,47.24606756,-99999.0,'11111222,11111222,99999999' 
TABS,ioos:station:wmo:42051:1,2001-05-03T12:30:00Z,29.6350,-93.6417,2.0,273.5773768,56.74053666,-99999.0,'11111222,11111222,99999999' 
TABS,ioos:station:wmo:42051:1,2001-05-03T13:00:00Z,29.6350,-93.6417,2.0,265.5990365,47.57023649,-99999.0,'11111222,11111222,99999999' 
TABS,ioos:station:wmo:42051:1,2001-05-03T13:30:00Z,29.6350,-93.6417,2.0,262.2362097,43.52897081,-99999.0,'11111222,11111222,99999999' 
TABS,ioos:station:wmo:42051:1,2001-05-03T14:00:00Z,29.6350,-93.6417,2.0,263.7476996,40.1286556,-99999.0,'11111222,11111222,99999999' 
TABS,ioos:station:wmo:42051:1,2001-05-03T14:30:00Z,29.6350,-93.6417,2.0,262.2363256,40.86453842,-99999.0,'11111222,11111222,99999999' 
TABS,ioos:station:wmo:42051:1,2001-05-03T15:00:00Z,29.6350,-93.6417,2.0,259.9892678,42.28370963,-99999.0,'11111222,11111222,99999999' 
TABS,ioos:station:wmo:42051:1,2001-05-03T15:30:00Z,29.6350,-93.6417,2.0,267.0246371,36.60933761,-99999.0,'11111222,11111222,99999999' 
TABS,ioos:station:wmo:42051:1,2001-05-03T16:00:00Z,29.6350,-93.6417,2.0,251.4736345,33.8332514,-99999.0,'11111222,11111222,99999999' 
TABS,ioos:station:wmo:42051:1,2001-05-03T16:30:00Z,29.6350,-93.6417,2.0,272.7793749,53.83330753,-99999.0,'11111222,11111222,99999999' 
TABS,ioos:station:wmo:42051:1,2001-05-03T17:00:00Z,29.6350,-93.6417,2.0,285.7543097,41.10400467,-99999.0,'11111222,11111222,99999999' 
TABS,ioos:station:wmo:42051:1,2001-05-03T17:30:00Z,29.6350,-93.6417,2.0,278.5970658,52.4492631,-99999.0,'11111222,11111222,99999999' 
TABS,ioos:station:wmo:42051:1,2001-05-03T18:00:00Z,29.6350,-93.6417,2.0,272.3354969,52.52361374,-99999.0,'11111222,11111222,99999999' 
TABS,ioos:station:wmo:42051:1,2001-05-03T18:30:00Z,29.6350,-93.6417,2.0,266.2506264,47.41145537,-99999.0,'11111222,11111222,99999999' 
TABS,ioos:station:wmo:42051:1,2001-05-03T19:00:00Z,29.6350,-93.6417,2.0,262.2231242,57.05470445,-99999.0,'11111222,11111222,99999999' 
TABS,ioos:station:wmo:42051:1,2001-05-03T19:30:00Z,29.6350,-93.6417,2.0,270.2150103,56.07039326,-99999.0,'11111222,11111222,99999999' 
TABS,ioos:station:wmo:42051:1,2001-05-03T20:00:00Z,29.6350,-93.6417,2.0,273.7174428,59.69557605,-99999.0,'11111222,11111222,99999999' 
TABS,ioos:station:wmo:42051:1,2001-05-03T20:30:00Z,29.6350,-93.6417,2.0,266.5464537,53.95796605,-99999.0,'11111222,11111222,99999999' 
TABS,ioos:station:wmo:42051:1,2001-05-03T21:00:00Z,29.6350,-93.6417,2.0,264.9275171,57.23411308,-99999.0,'11111222,11111222,99999999' 
TABS,ioos:station:wmo:42051:1,2001-05-03T21:30:00Z,29.6350,-93.6417,2.0,266.5725677,60.5582934,-99999.0,'11111222,11111222,99999999' 
TABS,ioos:station:wmo:42051:1,2001-05-03T22:00:00Z,29.6350,-93.6417,2.0,272.0507906,61.76954751,-99999.0,'11111222,11111222,99999999' 
TABS,ioos:station:wmo:42051:1,2001-05-03T22:30:00Z,29.6350,-93.6417,2.0,264.5607594,54.33461696,-99999.0,'11111222,11111222,99999999' 
TABS,ioos:station:wmo:42051:1,2001-05-03T23:00:00Z,29.6350,-93.6417,2.0,271.7097729,55.98491315,-99999.0,'11111222,11111222,99999999' 
TABS,ioos:station:wmo:42051:1,2001-05-03T23:30:00Z,29.6350,-93.6417,2.0,262.464533,47.66156733,-99999.0,'11111222,11111222,99999999' 
TABS,ioos:station:wmo:42051:1,2001-05-04T00:00:00Z,29.6350,-93.6417,2.0,259.2995539,47.71972024,-99999.0,'11111222,11111222,99999999' 
TABS,ioos:station:wmo:42051:1,2001-05-04T00:30:00Z,29.6350,-93.6417,2.0,261.1758777,43.80847521,-99999.0,'11111222,11111222,99999999' 
TABS,ioos:station:wmo:42051:1,2001-05-04T01:00:00Z,29.6350,-93.6417,2.0,262.8313917,49.36583839,-99999.0,'11111222,11111222,99999999' 
TABS,ioos:station:wmo:42051:1,2001-05-04T01:30:00Z,29.6350,-93.6417,2.0,261.4461124,41.14766701,-99999.0,'11111222,11111222,99999999' 
TABS,ioos:station:wmo:42051:1,2001-05-04T02:00:00Z,29.6350,-93.6417,2.0,272.0069707,36.84259084,-99999.0,'11111222,11111222,99999999' 
TABS,ioos:station:wmo:42051:1,2001-05-04T02:30:00Z,29.6350,-93.6417,2.0,268.0641179,58.03310779,-99999.0,'11111222,11111222,99999999' 
TABS,ioos:station:wmo:42051:1,2001-05-04T03:00:00Z,29.6350,-93.6417,2.0,254.7945966,62.18694558,-99999.0,'11111222,11111222,99999999' 
TABS,ioos:station:wmo:42051:1,2001-05-04T03:30:00Z,29.6350,-93.6417,2.0,244.3821181,69.50202443,-99999.0,'11111222,11111222,99999999' 
TABS,ioos:station:wmo:42051:1,2001-05-04T04:00:00Z,29.6350,-93.6417,2.0,240.1333687,77.27257275,-99999.0,'11111222,11111222,99999999' 
TABS,ioos:station:wmo:42051:1,2001-05-04T04:30:00Z,29.6350,-93.6417,2.0,252.0051087,62.11845539,-99999.0,'11111222,11111222,99999999' 
TABS,ioos:station:wmo:42051:1,2001-05-04T05:00:00Z,29.6350,-93.6417,2.0,266.3357146,54.30098526,-99999.0,'11111222,11111222,99999999' 
TABS,ioos:station:wmo:42051:1,2001-05-04T05:30:00Z,29.6350,-93.6417,2.0,264.109426,49.20980593,-99999.0,'11111222,11111222,99999999' 
TABS,ioos:station:wmo:42051:1,2001-05-04T06:00:00Z,29.6350,-93.6417,2.0,257.7030251,43.62073475,-99999.0,'11111222,11111222,99999999' 
TABS,ioos:station:wmo:42051:1,2001-05-04T06:30:00Z,29.6350,-93.6417,2.0,259.326074,58.7972831,-99999.0,'11111222,11111222,99999999' 
TABS,ioos:station:wmo:42051:1,2001-05-04T07:00:00Z,29.6350,-93.6417,2.0,257.3180338,70.37682928,-99999.0,'11111222,11111222,99999999' 
TABS,ioos:station:wmo:42051:1,2001-05-04T07:30:00Z,29.6350,-93.6417,2.0,248.2309728,61.72142659,-99999.0,'11111222,11111222,99999999' 
TABS,ioos:station:wmo:42051:1,2001-05-04T08:00:00Z,29.6350,-93.6417,2.0,247.6218741,52.42816037,-99999.0,'11111222,11111222,99999999' 
TABS,ioos:station:wmo:42051:1,2001-05-04T08:30:00Z,29.6350,-93.6417,2.0,241.9285478,48.4947059,-99999.0,'11111222,11111222,99999999' 
TABS,ioos:station:wmo:42051:1,2001-05-04T09:00:00Z,29.6350,-93.6417,2.0,239.7068749,40.85890968,-99999.0,'11111222,11111222,99999999' 
TABS,ioos:station:wmo:42051:1,2001-05-04T09:30:00Z,29.6350,-93.6417,2.0,235.6715724,43.3386398,-99999.0,'11111222,11111222,99999999' 
TABS,ioos:station:wmo:42051:1,2001-05-04T10:00:00Z,29.6350,-93.6417,2.0,235.3200677,51.23142981,-99999.0,'11111222,11111222,99999999' 
TABS,ioos:station:wmo:42051:1,2001-05-04T10:30:00Z,29.6350,-93.6417,2.0,229.4284817,45.41873622,-99999.0,'11111222,11111222,99999999' 
TABS,ioos:station:wmo:42051:1,2001-05-04T11:00:00Z,29.6350,-93.6417,2.0,242.0838618,43.44545661,-99999.0,'11111222,11111222,99999999' 
TABS,ioos:station:wmo:42051:1,2001-05-04T11:30:00Z,29.6350,-93.6417,2.0,245.2906336,53.85040854,-99999.0,'11111222,11111222,99999999' 
TABS,ioos:station:wmo:42051:1,2001-05-04T12:00:00Z,29.6350,-93.6417,2.0,238.8844129,47.35263984,-99999.0,'11111222,11111222,99999999' 
TABS,ioos:station:wmo:42051:1,2001-05-04T12:30:00Z,29.6350,-93.6417,2.0,250.4917271,45.42775913,-99999.0,'11111222,11111222,99999999' 
TABS,ioos:station:wmo:42051:1,2001-05-04T13:00:00Z,29.6350,-93.6417,2.0,261.1532565,50.00484177,-99999.0,'11111222,11111222,99999999' 
TABS,ioos:station:wmo:42051:1,2001-05-04T13:30:00Z,29.6350,-93.6417,2.0,266.9999308,48.15598094,-99999.0,'11111222,11111222,99999999' 
TABS,ioos:station:wmo:42051:1,2001-05-04T14:00:00Z,29.6350,-93.6417,2.0,266.8203089,57.51852745,-99999.0,'11111222,11111222,99999999' 
TABS,ioos:station:wmo:42051:1,2001-05-04T14:30:00Z,29.6350,-93.6417,2.0,266.8965712,50.0634018,-99999.0,'11111222,11111222,99999999' 
TABS,ioos:station:wmo:42051:1,2001-05-04T15:00:00Z,29.6350,-93.6417,2.0,263.5992202,52.56764404,-99999.0,'11111222,11111222,99999999' 
TABS,ioos:station:wmo:42051:1,2001-05-04T15:30:00Z,29.6350,-93.6417,2.0,263.1572788,49.77450452,-99999.0,'11111222,11111222,99999999' 